Terug naar catalogus

USA 8

ActiefMilitairMEO
NORAD 15543·PAYLOAD·🇺🇸 United States

Gelanceerd Jan 24, 1985 vanaf Cape Canaveral Space Force Station

Loading…

Volgende Passages (komende 24 uur)

TLE

VersSource: Space-Track

Epoch: Sep 13, 2026, 17:34 UTC

1 15543U 85010B   26256.73219453 -.00000029  00000-0  00000-0 0  9999
2 15543  12.4901 312.6956 0121878  57.7894 309.6356  0.99805731  8716

Volg USA 8 in realtime met AllMySat

Download on the App Store